Location: Chuathbaluk
(61.5726°N, 159.2454°W)
Time: 02:54:04
(UTC+00:00)

TIGRISAT - Pass Details

Date: 21 January 2021
Orbit: 605 x 688 km, 97.7° (Epoch: 05 March)

Event Time Altitude Azimuth Distance (km) Brightness Sun altitude
Rises 14:46:08 0° 98° (E) 2,889 ? -31.7°
Reaches altitude 10° 14:49:07 10° 75° (ENE) 2,000 ? -31.3°
Maximum altitude 14:51:33 15° 41° (NE) 1,710 ? -31.1°
Drops below altitude 10° 14:54:00 10° 7° (N) 2,030 ? -30.8°
Enters shadow 14:54:41 - 0° (N) 2,205 ? -30.7°
